This is the latest recevied weather packets stored in our database for station/object K6CEG. If no packets are shown the sender has not sent any weather packets the latest 10 day(s).
| Time | Temp. | Humidity | Pressure | Rain* | Wind** | Luminosity | Snow |
|---|---|---|---|---|---|---|---|
| 1787967339 | 37.22° C | 33% | 1012 hPa | 0 mm | - | 23 W/m² | - |
| 1787967035 | 37.78° C | 33% | 1012 hPa | 0 mm | - | 24 W/m² | - |
| 1787966732 | 37.78° C | 33% | 1011.9 hPa | 0 mm | - | 27 W/m² | - |
| 1787966432 | 37.22° C | 33% | 1012.1 hPa | 0 mm | - | 52 W/m² | - |
| 1787966132 | 36.67° C | 35% | 1012.2 hPa | 0 mm | - | 66 W/m² | - |
| 1787965831 | 37.22° C | 35% | 1011.9 hPa | 0 mm | - | 55 W/m² | - |
| 1787965526 | 37.22° C | 34% | 1012 hPa | 0 mm | - | 35 W/m² | - |
| 1787965222 | 37.78° C | 34% | 1012 hPa | 0 mm | - | 46 W/m² | - |
| 1787964915 | 37.78° C | 33% | 1012 hPa | 0 mm | - | 97 W/m² | - |
| 1787964610 | 37.78° C | 32% | 1012.1 hPa | 0 mm | - | 36 W/m² | - |
| 1787964304 | 37.78° C | 32% | 1012 hPa | 0 mm | - | 37 W/m² | - |
| 1787964003 | 37.78° C | 32% | 1012.1 hPa | 0 mm | - | 39 W/m² | - |
| 1787963698 | 37.78° C | 31% | 1011.8 hPa | 0 mm | - | 42 W/m² | - |
| 1787963398 | 37.78° C | 30% | 1011.8 hPa | 0 mm | - | 43 W/m² | - |
| 1787963094 | 38.33° C | 30% | 1011.7 hPa | 0 mm | - | 61 W/m² | - |
| 1787962793 | 38.33° C | 30% | 1012.1 hPa | 0 mm | - | 173 W/m² | - |
| 1787962492 | 38.33° C | 30% | 1011.9 hPa | 0 mm | - | 253 W/m² | - |
| 1787962190 | 37.78° C | 30% | 1011.7 hPa | 0 mm | - | 278 W/m² | - |
| 1787961885 | 38.33° C | 29% | 1011.9 hPa | 0 mm | - | 290 W/m² | - |
| 1787961584 | 38.33° C | 30% | 1011.9 hPa | 0 mm | - | 263 W/m² | - |
| 1787961278 | 38.33° C | 30% | 1012 hPa | 0 mm | - | 53 W/m² | - |
| 1787960973 | 38.89° C | 29% | 1011.9 hPa | 0 mm | - | 53 W/m² | - |
| 1787960668 | 38.33° C | 30% | 1011.8 hPa | 0 mm | - | 82 W/m² | - |
| 1787960367 | 38.33° C | 29% | 1011.9 hPa | 0 mm | - | 57 W/m² | - |
| 1787960061 | 38.89° C | 28% | 1011.9 hPa | 0 mm | - | 81 W/m² | - |
* Rain latest hour (hover to see other rain measurements)
** Current wind speed in m/s (hover to see current wind gust speed)